Погода Крестцы

Погода Крестцы : погода сейчас, прогноз погоды и архив. Всё, что Вы хотите узнать о погоде Крестцы!

Поиск расширенной информации на нашем сайте:

Другие новости

Новости СМИ2

Главная страница сайта

Новости сайта

03.07.2017

Напоминаем, что на нашем специализированном сайте Метеоцентр.Азия вы можете получить высокодетализированные автоматические прогнозы погоды по пунктам России, СНГ и мира в авиационном формате (включающие направление и скорость ветра, видимость, явления погоды, количество и форму облачности, нижнюю и верхнюю границу облачности).


Погода Крестцы - сегодня

Время (UTC), дата Ветер
(°,м/с) 
Видим.   Явления Облачность Т
(°С)
Тd
(°С)
f(%) Тe
(°С)
Pmin
(гПа)
dP
(гПа)
Po
(мм)
O2
(г/м3)
Тmin Tmax R s Состояние
почвы
21 12.12.17 190 (Ю) 20000 м  {снег}  10/10 300 м 
[St]
+1.8 +1.1 95 +1  999.3  744  297           
00 13.12.17 190 (Ю) 20000 м  {снег}  10/10 300 м 
[St]
+2.4 +1.8 96 +2  999.5  0.2  744  297           
03 13.12.17 190 (Ю) 20000 м    10/10 300 м 
[St]
+2.8 +1.9 94 +1  998.4  -1.1  743  296  +0.4       
06 13.12.17 200 (Ю) 20000 м    9/9 1080 м 
[Sc]
+3.5 +0.5 81 +2  999.2  0.8  744  296  +1.1    равномерный
мокрый или
старый снег
100% 
09 13.12.17 230 (ЮЗ) 4{10}  20000 м  в посл. час ливневой дождь  10/10 800 м кучево-дожд. 
[Cb calv]
+2.7 -0.2 81 +1  1002.4  3.2  746  298           
12 13.12.17 260 (З) 3{10}  20000 м  {ливн. осадки}  9/9 800 м кучево-дожд. 
[Cb calv]
+2.1 -0.9 81 +1  1005.3  2.9  748  299           
15 13.12.17 210 (ЮЗ) 20000 м    3/0 средняя 
[Ac trans]
-0.8 -3.1 84 1008.1  2.7  750  304      0.0     
18 13.12.17 210 (ЮЗ) 20000 м    9/9 1300 м 
[Sc]
-0.5 -2.1 89 -1  1009.6  1.5  751  303    +3.5  0.0     
21 13.12.17 190 (Ю) 20000 м    10/10 960 м 
[Sc]
-1.1 -2.5 90 -1  1010.2  0.6  752  304           
00 14.12.17 170 (Ю) 20000 м    ясно 
-1.5 -2.7 92 -1  1010.4  0.6  752  305           
03 14.12.17 180 (Ю) 20000 м    10/10 720 м 
[Sc]
-1.1 -1.9 94 -1  1010.5  0.1  752  304  -2.2         
06 14.12.17 140 (ЮВ) 20000 м  {снег}  10/10 800 м 
[Sc]
-0.5 -1.5 93 1010.1  -0.4  752  304  -2.2    0.0  равномерный
мокрый или
старый снег
100% 
09 14.12.17 150 (ЮВ) 20000 м    9/9 900 м 
[Sc]
-0.3 -2.3 86 1009.5  -0.6  751  303           
12 14.12.17 140 (ЮВ) 20000 м    8/3 1000 м верхняя 
[Sc|Ci fib]
-0.1 -3.2 80 -1  1007.4  -2  750  303           
15 14.12.17 150 (ЮВ) 20000 м    6/6 1000 м 
[Sc]
-2.5 -4.2 88 -4  1006.5  -1  749  305      0.0     
18 14.12.17 130 (ЮВ) 20000 м    8/8 1050 м 
[Sc]
-2.2 -3.8 89 -3  1004.5  -2  747  304    +0.3       
21 14.12.17 130 (ЮВ) 20000 м    9/9 960 м 
[Sc]
-1.4 -3.2 88 -2  1002.8  -1.6  746  303           
00 15.12.17 140 (ЮВ) 20000 м    10/10 540 м 
[Sc]
-0.4 -2.2 88 -1  1001.4  -1.3  745  301           
03 15.12.17 130 (ЮВ) 4000 м  слаб. снег  10/10 300 м 
[Frnb|Ns]
-0.4 -1.1 95 -1  1000  -1.4  744  300  -2.6    0.4     
06 15.12.17 150 (ЮВ) 4000 м  слаб. снег  10/10 180 м 
[Frnb|Ns]
-0.1 -0.5 97 -1  999.4  -0.5  744  300  -2.2    равномерный
сухой снег
100% 
09 15.12.17 170 (Ю) 4000 м  слаб. снег  10/10 210 м 
[Frnb|Ns]
+0.6 -0.4 93 -1  1000.3  0.8  744  299           
12 15.12.17 180 (Ю) 20000 м  в посл. час ливневой снег  9/9 720 м кучево-дожд. 
[Cb calv]
+1.3 +0.1 92 +1  1002.2  746  299           
15 15.12.17 170 (Ю) 4000 м  слаб. снег  10/10 300 м 
[Frnb]
+1.3 -0.4 88 1004  1.7  747  300         
18 15.12.17 180 (Ю) 20000 м  {снег}  10/10 1000 м 
[Sc]
+1.4 -0.6 87 1006  749  300    +1.4     
21 15.12.17 160 (Ю) 20000 м    10/10 870 м 
[Sc]
+0.9 -1.1 86 1007  749  301           
Время (UTC), дата Ветер
(°,м/с) 
Видим.   Явления Облачность Т
(°С)
Тd
(°С)
f(%) Тe
(°С)
Pmin
(гПа)
dP
(гПа)
Po
(мм)
O2
(г/м3)
Тmin Tmax R s Состояние
почвы

Для получения пояснительной информации подведите курсор к названию столбца.

ПОГОДА Крестцы - архив

Всё, что Вы хотите узнать о погоде Крестцы - удобно и подробно!

Выберите нужную дату (начиная с 1 января 2015* года) и нажмите кнопку "Найти".
Будут отображены архивные сводки погоды по пункту Крестцы, начиная с указанной даты.


Отображать данные в формате CSV (для использования в таблицах Excel)


Внимание! Наш архив погоды предназначен исключительно для личного некоммерческого использования в познавательных целях. Если Вам необходимы официальные справки о состоянии погоды (для производственных, юридических, коммерческих и т.п. целей), обращайтесь в органы Росгидромета.

*Примечание: данная дата относится к архиву по метеостанциям СССР (Россия, СНГ, Балтия).
Архив по метеостанциям Зарубежной Европы и Азии (кроме Китая) хранится 10 дней, по другим регионам земного шара (Китай, Африка, Америка, Австралия, Океания) - 1 день.

Крестцы - район местоположения метеостанции


Название, широта, долгота, высота метеостанции:
Крестцы 58.3°ш. 32.5°д. 63 м над ур. моря [Российская Федерация]

Дополнительная информация

В oтличие oт бoльшинства пoгoдных сайтoв мы публикуем пoдрoбную метеoинфoрмацию в детальнoм прoфессиoнальнoм фoрмате.

Характеристики температуры и влажнoсти вoздуха измеряются на высoте 2 м в тени вдали oт зданий и деревьев.
Скoрoсть ветра измеряется на высoте 10 м (на урoвне рoста челoвека скoрoсть ветра ниже в 1.5-2 раза). Если метеoстанция нахoдится в гoрoде или в лесу, тo скoрoсть ветра занижена на 2-4 м/с пo сравнению с oткрытым местoм. Скoрoсть ветра над акватoриями крупных рек и oзёр, а также на вершинах хoлмoв на 2-5 м/с выше, чем в oбычных услoвиях.
Атмoсфернoе давление в разных тoчках местнoсти мoжет значительнo oтличаться oт давления на метеoстанции, в зависимoсти oт услoвий рельефа (при пoдъёме на 10 м давление пoнижается примернo на 1 мм рт.ст.).